Location: Rio Negrinho
(26.2394°S, 49.4999°W)
Time: 19:10:52
(UTC+00:00)

Envisat - Pass Details

Date: 24 July 2021
Orbit: 764 x 766 km, 98.2° (Epoch: 17 September)

Event Time Altitude Azimuth Distance (km) Brightness Sun altitude
Rises 08:20:22 0° 359° (N) 3,213 6.4 -22.5°
Reaches altitude 10° 08:22:44 10° 354° (N) 2,295 5.5 -22.0°
Maximum altitude 08:27:35 47° 280° (W) 1,011 3.2 -20.9°
Enters shadow 08:28:19 44° 255° (WSW) 1,056 3.2 -20.8°
